Time,TemperatureF,DewpointF,PressureIn,WindDirection,WindDirectionDegrees,WindSpeedMPH,WindSpeedGustMPH,Humidity,HourlyPrecipIn,Conditions,Clouds,dailyrainin,SoftwareType,DateUTC
2013-06-14 00:00:00,53.3,51.7,29.62,WSW,248,2.2,3.6,94,-99.99,,,-99.99,WSDL version 420,2013-06-13 14:00:00,
2013-06-14 00:05:00,53.1,51.6,29.62,WSW,239,1.7,3.4,94,-99.99,,,-99.99,WSDL version 420,2013-06-13 14:05:00,
2013-06-14 00:10:00,53.5,52.2,29.62,SSW,212,1.3,4.3,96,-99.99,,,-99.99,WSDL version 420,2013-06-13 14:10:00,
2013-06-14 00:15:00,53.3,52.1,29.62,East,82,0.0,4.3,96,-99.99,,,-99.99,WSDL version 420,2013-06-13 14:15:00,
2013-06-14 00:20:00,53.0,51.4,29.62,WSW,251,0.3,1.3,94,-99.99,,,-99.99,WSDL version 420,2013-06-13 14:20:00,
2013-06-14 00:25:00,52.8,51.2,29.62,West,273,0.2,2.7,94,-99.99,,,-99.99,WSDL version 420,2013-06-13 14:25:00,
2013-06-14 00:30:00,52.9,51.6,29.62,SSE,164,0.2,3.6,96,-99.99,,,-99.99,WSDL version 420,2013-06-13 14:30:00,
2013-06-14 00:35:00,52.6,51.3,29.62,West,267,0.8,3.6,96,-99.99,,,-99.99,WSDL version 420,2013-06-13 14:35:00,
2013-06-14 00:40:00,52.2,51.0,29.59,SSE,148,0.0,2.2,96,-99.99,,,-99.99,WSDL version 420,2013-06-13 14:40:00,
2013-06-14 00:45:00,52.0,50.8,29.59,West,270,1.6,3.8,96,-99.99,,,-99.99,WSDL version 420,2013-06-13 14:45:00,
2013-06-14 00:50:00,52.9,52.1,29.59,SSW,200,2.1,3.8,98,-99.99,,,-99.99,WSDL version 420,2013-06-13 14:50:00,
2013-06-14 00:55:00,53.1,52.4,29.59,WSW,256,0.8,3.1,98,-99.99,,,-99.99,WSDL version 420,2013-06-13 14:55:00,
2013-06-14 01:00:00,53.1,52.1,29.59,SSW,203,1.5,2.5,97,-99.99,,,-99.99,WSDL version 420,2013-06-13 15:00:00,
2013-06-14 01:05:00,52.9,52.0,29.59,West,275,2.2,3.6,97,-99.99,,,-99.99,WSDL version 420,2013-06-13 15:05:00,
2013-06-14 01:10:00,53.2,52.4,29.59,WSW,244,4.4,7.6,98,-99.99,,,-99.99,WSDL version 420,2013-06-13 15:10:00,
2013-06-14 01:15:00,53.9,53.0,29.59,West,270,4.0,7.6,97,-99.99,,,-99.99,WSDL version 420,2013-06-13 15:15:00,
2013-06-14 01:20:00,54.1,53.1,29.59,West,278,4.9,6.0,96,-99.99,,,-99.99,WSDL version 420,2013-06-13 15:20:00,
2013-06-14 01:25:00,54.3,53.1,29.59,WSW,251,4.0,6.3,96,-99.99,,,-99.99,WSDL version 420,2013-06-13 15:25:00,
2013-06-14 01:30:00,54.5,52.9,29.59,West,281,3.3,6.3,94,-99.99,,,-99.99,WSDL version 420,2013-06-13 15:30:00,
2013-06-14 01:35:00,54.5,52.9,29.59,WNW,301,3.6,6.9,94,-99.99,,,-99.99,WSDL version 420,2013-06-13 15:35:00,
2013-06-14 01:40:00,54.4,52.5,29.59,WNW,287,3.3,6.9,93,-99.99,,,-99.99,WSDL version 420,2013-06-13 15:40:00,
2013-06-14 01:45:00,54.3,52.4,29.59,West,278,2.2,5.8,93,-99.99,,,-99.99,WSDL version 420,2013-06-13 15:45:00,
2013-06-14 01:50:00,54.3,52.6,29.59,WNW,290,4.1,7.4,94,-99.99,,,-99.99,WSDL version 420,2013-06-13 15:50:00,
2013-06-14 01:55:00,54.3,52.8,29.59,West,264,2.3,7.4,94,-99.99,,,-99.99,WSDL version 420,2013-06-13 15:55:00,
2013-06-14 02:00:00,54.3,52.7,29.59,WNW,298,2.4,6.5,93,-99.99,,,-99.99,WSDL version 420,2013-06-13 16:00:00,
2013-06-14 02:05:00,54.2,52.3,29.59,WSW,252,2.6,4.7,93,-99.99,,,-99.99,WSDL version 420,2013-06-13 16:05:00,
2013-06-14 02:10:00,54.1,52.4,29.59,West,266,2.2,4.7,93,-99.99,,,-99.99,WSDL version 420,2013-06-13 16:10:00,
2013-06-14 02:15:00,54.1,52.5,29.59,West,281,1.9,4.3,94,-99.99,,,-99.99,WSDL version 420,2013-06-13 16:15:00,
2013-06-14 02:20:00,54.0,52.4,29.59,West,270,3.3,4.3,94,-99.99,,,-99.99,WSDL version 420,2013-06-13 16:20:00,
2013-06-14 02:25:00,54.0,52.4,29.59,West,273,3.8,5.8,94,-99.99,,,-99.99,WSDL version 420,2013-06-13 16:25:00,
2013-06-14 02:30:00,54.0,52.6,29.59,West,276,3.2,5.8,96,-99.99,,,-99.99,WSDL version 420,2013-06-13 16:30:00,
2013-06-14 02:35:00,53.9,52.6,29.59,WNW,296,3.3,6.5,96,-99.99,,,-99.99,WSDL version 420,2013-06-13 16:35:00,
2013-06-14 02:40:00,53.8,52.5,29.59,West,270,3.5,6.5,96,-99.99,,,-99.99,WSDL version 420,2013-06-13 16:40:00,
2013-06-14 02:45:00,53.8,52.7,29.59,WNW,283,4.3,7.4,97,-99.99,,,-99.99,WSDL version 420,2013-06-13 16:45:00,
2013-06-14 02:50:00,54.0,53.0,29.59,WNW,293,5.1,7.4,97,-99.99,,,-99.99,WSDL version 420,2013-06-13 16:50:00,
2013-06-14 02:55:00,54.1,53.2,29.59,NW,304,2.8,7.4,97,-99.99,,,-99.99,WSDL version 420,2013-06-13 16:55:00,
2013-06-14 03:05:00,54.0,53.0,29.59,West,273,4.3,6.9,97,-99.99,,,-99.99,WSDL version 420,2013-06-13 17:05:00,
2013-06-14 03:10:00,54.0,53.0,29.59,WNW,293,4.6,10.3,97,-99.99,,,-99.99,WSDL version 420,2013-06-13 17:10:00,
2013-06-14 03:15:00,54.0,53.0,29.59,WNW,287,5.1,10.3,97,-99.99,,,-99.99,WSDL version 420,2013-06-13 17:15:00,
2013-06-14 03:25:00,54.0,53.0,29.59,West,280,4.4,11.0,97,-99.99,,,-99.99,WSDL version 420,2013-06-13 17:25:00,
2013-06-14 03:30:00,54.0,53.0,29.59,West,264,4.3,7.6,97,-99.99,,,-99.99,WSDL version 420,2013-06-13 17:30:00,
2013-06-14 03:35:00,53.9,52.9,29.59,WNW,283,4.7,7.6,97,-99.99,,,-99.99,WSDL version 420,2013-06-13 17:35:00,
2013-06-14 03:40:00,53.9,52.9,29.56,West,276,6.2,9.6,97,-99.99,,,-99.99,WSDL version 420,2013-06-13 17:40:00,
2013-06-14 03:45:00,53.8,52.9,29.56,West,278,4.3,9.6,97,-99.99,,,-99.99,WSDL version 420,2013-06-13 17:45:00,
2013-06-14 03:50:00,53.8,52.9,29.56,WNW,289,4.7,9.4,97,-99.99,,,-99.99,WSDL version 420,2013-06-13 17:50:00,
2013-06-14 03:55:00,53.6,52.7,29.56,West,266,3.4,9.4,97,-99.99,,,-99.99,WSDL version 420,2013-06-13 17:55:00,
2013-06-14 04:00:00,53.6,52.7,29.56,WNW,295,3.3,7.8,97,-99.99,,,-99.99,WSDL version 420,2013-06-13 18:00:00,
2013-06-14 04:05:00,53.6,52.7,29.56,WNW,283,3.7,7.2,97,-99.99,,,-99.99,WSDL version 420,2013-06-13 18:05:00,
2013-06-14 04:10:00,53.4,52.5,29.56,West,273,3.1,6.0,97,-99.99,,,-99.99,WSDL version 420,2013-06-13 18:10:00,
2013-06-14 04:15:00,53.4,52.8,29.56,West,276,3.7,6.0,98,-99.99,,,-99.99,WSDL version 420,2013-06-13 18:15:00,
2013-06-14 04:20:00,53.2,52.6,29.56,West,260,3.3,6.0,98,-99.99,,,-99.99,WSDL version 420,2013-06-13 18:20:00,
2013-06-14 04:25:00,53.2,52.6,29.59,WSW,257,4.2,8.1,98,-99.99,,,-99.99,WSDL version 420,2013-06-13 18:25:00,
2013-06-14 04:30:00,53.2,52.6,29.59,NW,305,4.3,11.0,98,-99.99,,,-99.99,WSDL version 420,2013-06-13 18:30:00,
2013-06-14 04:35:00,53.2,52.6,29.59,WNW,289,4.1,11.0,98,-99.99,,,-99.99,WSDL version 420,2013-06-13 18:35:00,
2013-06-14 04:40:00,53.4,52.7,29.56,West,278,4.2,10.1,97,-99.99,,,-99.99,WSDL version 420,2013-06-13 18:40:00,
2013-06-14 04:45:00,53.6,52.7,29.56,West,264,4.3,8.7,97,-99.99,,,-99.99,WSDL version 420,2013-06-13 18:45:00,
2013-06-14 04:50:00,53.5,52.4,29.56,WNW,295,3.3,8.1,96,-99.99,,,-99.99,WSDL version 420,2013-06-13 18:50:00,
2013-06-14 04:55:00,53.4,52.2,29.56,West,276,5.1,8.1,96,-99.99,,,-99.99,WSDL version 420,2013-06-13 18:55:00,
2013-06-14 05:00:00,53.5,52.2,29.56,West,265,4.3,8.1,96,-99.99,,,-99.99,WSDL version 420,2013-06-13 19:00:00,
2013-06-14 05:05:00,53.4,52.2,29.56,WNW,283,5.0,7.6,96,-99.99,,,-99.99,WSDL version 420,2013-06-13 19:05:00,
2013-06-14 05:10:00,53.4,52.2,29.56,West,260,4.7,9.6,96,-99.99,,,-99.99,WSDL version 420,2013-06-13 19:10:00,
2013-06-14 05:15:00,53.4,52.2,29.56,WNW,293,4.4,11.0,96,-99.99,,,-99.99,WSDL version 420,2013-06-13 19:15:00,
2013-06-14 05:20:00,53.3,52.1,29.56,WNW,284,3.1,11.0,96,-99.99,,,-99.99,WSDL version 420,2013-06-13 19:20:00,
2013-06-14 05:25:00,53.2,52.0,29.56,SW,233,4.5,7.8,96,-99.99,,,-99.99,WSDL version 420,2013-06-13 19:25:00,
2013-06-14 05:30:00,53.2,51.9,29.56,WNW,289,3.4,7.8,96,-99.99,,,-99.99,WSDL version 420,2013-06-13 19:30:00,
2013-06-14 05:35:00,53.1,51.8,29.56,West,274,2.7,6.9,96,-99.99,,,-99.99,WSDL version 420,2013-06-13 19:35:00,
2013-06-14 05:40:00,53.1,51.8,29.59,WNW,284,3.6,5.8,94,-99.99,,,-99.99,WSDL version 420,2013-06-13 19:40:00,
2013-06-14 05:45:00,-999.0,-99.9,29.59,West,270,2.6,9.8,-999,-99.99,,,-99.99,WSDL version 420,2013-06-13 19:45:00,
2013-06-14 05:50:00,53.1,51.5,29.59,NW,315,3.8,9.8,94,-99.99,,,-99.99,WSDL version 420,2013-06-13 19:50:00,
2013-06-14 06:00:00,53.1,51.5,29.59,WSW,254,2.2,6.5,94,-99.99,,,-99.99,WSDL version 420,2013-06-13 20:00:00,
2013-06-14 06:05:00,53.1,51.3,29.59,West,278,4.5,6.5,94,-99.99,,,-99.99,WSDL version 420,2013-06-13 20:05:00,
2013-06-14 06:10:00,53.1,51.2,29.59,NW,311,3.2,6.9,93,-99.99,,,-99.99,WSDL version 420,2013-06-13 20:10:00,
2013-06-14 06:15:00,53.1,51.2,29.59,WNW,289,3.1,10.1,93,-99.99,,,-99.99,WSDL version 420,2013-06-13 20:15:00,
2013-06-14 06:20:00,53.1,51.2,29.59,West,267,5.0,10.1,93,-99.99,,,-99.99,WSDL version 420,2013-06-13 20:20:00,
2013-06-14 06:25:00,53.2,51.3,29.59,West,280,3.7,8.7,93,-99.99,,,-99.99,WSDL version 420,2013-06-13 20:25:00,
2013-06-14 06:30:00,53.1,51.2,29.59,WNW,286,4.7,11.0,93,-99.99,,,-99.99,WSDL version 420,2013-06-13 20:30:00,
2013-06-14 06:35:00,53.1,51.2,29.59,West,273,4.1,11.0,93,-99.99,,,-99.99,WSDL version 420,2013-06-13 20:35:00,
2013-06-14 06:40:00,53.1,51.2,29.59,WNW,286,3.4,8.5,93,-99.99,,,-99.99,WSDL version 420,2013-06-13 20:40:00,
2013-06-14 06:45:00,53.1,51.2,29.59,WNW,286,4.9,8.5,93,-99.99,,,-99.99,WSDL version 420,2013-06-13 20:45:00,
2013-06-14 06:50:00,53.0,51.1,29.59,WSW,248,3.1,7.8,93,-99.99,,,-99.99,WSDL version 420,2013-06-13 20:50:00,
2013-06-14 06:55:00,52.9,51.0,29.59,WNW,286,4.4,7.8,93,-99.99,,,-99.99,WSDL version 420,2013-06-13 20:55:00,
2013-06-14 07:00:00,53.1,51.2,29.59,West,274,4.5,7.8,93,-99.99,,,-99.99,WSDL version 420,2013-06-13 21:00:00,
2013-06-14 07:05:00,53.1,51.2,29.59,West,267,4.1,7.4,93,-99.99,,,-99.99,WSDL version 420,2013-06-13 21:05:00,
2013-06-14 07:15:00,52.8,51.0,29.59,WNW,290,2.8,6.5,93,-99.99,,,-99.99,WSDL version 420,2013-06-13 21:15:00,
2013-06-14 07:20:00,52.7,50.8,29.59,West,259,3.3,8.7,93,-99.99,,,-99.99,WSDL version 420,2013-06-13 21:20:00,
2013-06-14 07:25:00,52.6,50.7,29.59,WNW,293,3.3,8.7,93,-99.99,,,-99.99,WSDL version 420,2013-06-13 21:25:00,
2013-06-14 07:30:00,52.7,51.2,29.59,West,276,3.5,6.3,94,-99.99,,,-99.99,WSDL version 420,2013-06-13 21:30:00,
2013-06-14 07:35:00,53.0,51.5,29.59,West,278,3.5,6.3,94,-99.99,,,-99.99,WSDL version 420,2013-06-13 21:35:00,
2013-06-14 07:40:00,53.4,51.5,29.59,WNW,284,3.9,6.0,93,-99.99,,,-99.99,WSDL version 420,2013-06-13 21:40:00,
2013-06-14 07:45:00,53.8,51.5,29.59,West,273,5.3,11.9,91,-99.99,,,-99.99,WSDL version 420,2013-06-13 21:45:00,
2013-06-14 07:50:00,54.1,51.3,29.59,NW,304,4.7,11.9,90,-99.99,,,-99.99,WSDL version 420,2013-06-13 21:50:00,
2013-06-14 07:55:00,54.3,51.3,29.59,WNW,290,4.1,9.4,89,-99.99,,,-99.99,WSDL version 420,2013-06-13 21:55:00,
2013-06-14 08:00:00,54.5,51.1,29.59,West,276,5.6,7.8,88,-99.99,,,-99.99,WSDL version 420,2013-06-13 22:00:00,
2013-06-14 08:05:00,55.0,51.3,29.59,NW,309,3.4,7.8,87,-99.99,,,-99.99,WSDL version 420,2013-06-13 22:05:00,
2013-06-14 08:10:00,55.8,51.6,29.59,WNW,284,3.4,7.6,86,-99.99,,,-99.99,WSDL version 420,2013-06-13 22:10:00,
2013-06-14 08:15:00,56.1,51.3,29.59,WNW,289,4.9,11.9,83,-99.99,,,-99.99,WSDL version 420,2013-06-13 22:15:00,
2013-06-14 08:20:00,56.3,51.1,29.59,West,273,5.1,11.9,82,-99.99,,,-99.99,WSDL version 420,2013-06-13 22:20:00,
2013-06-14 08:25:00,57.5,51.5,29.59,WNW,283,4.4,7.6,80,-99.99,,,-99.99,WSDL version 420,2013-06-13 22:25:00,
2013-06-14 08:30:00,58.0,51.6,29.59,NW,315,3.4,7.4,79,-99.99,,,-99.99,WSDL version 420,2013-06-13 22:30:00,
2013-06-14 08:35:00,58.5,51.7,29.59,WNW,296,3.4,7.8,78,-99.99,,,-99.99,WSDL version 420,2013-06-13 22:35:00,
2013-06-14 08:40:00,58.9,51.4,29.59,WSW,251,5.0,9.2,75,-99.99,,,-99.99,WSDL version 420,2013-06-13 22:40:00,
2013-06-14 08:45:00,59.0,50.7,29.59,West,278,5.0,9.2,74,-99.99,,,-99.99,WSDL version 420,2013-06-13 22:45:00,
2013-06-14 08:50:00,59.2,50.8,29.59,WNW,299,4.6,8.7,73,-99.99,,,-99.99,WSDL version 420,2013-06-13 22:50:00,
2013-06-14 08:55:00,59.7,51.0,29.62,West,273,4.5,8.5,73,-99.99,,,-99.99,WSDL version 420,2013-06-13 22:55:00,
2013-06-14 09:00:00,60.2,51.1,29.62,NW,304,3.6,7.6,72,-99.99,,,-99.99,WSDL version 420,2013-06-13 23:00:00,
2013-06-14 09:05:00,60.3,50.6,29.62,West,276,6.6,12.1,70,-99.99,,,-99.99,WSDL version 420,2013-06-13 23:05:00,
2013-06-14 09:10:00,60.4,50.6,29.62,West,280,5.4,12.1,70,-99.99,,,-99.99,WSDL version 420,2013-06-13 23:10:00,
2013-06-14 09:15:00,60.9,50.9,29.62,West,270,5.0,10.3,69,-99.99,,,-99.99,WSDL version 420,2013-06-13 23:15:00,
2013-06-14 09:20:00,61.6,51.2,29.62,WSW,248,3.1,8.7,69,-99.99,,,-99.99,WSDL version 420,2013-06-13 23:20:00,
2013-06-14 09:25:00,61.7,50.2,29.62,West,260,5.7,12.8,64,-99.99,,,-99.99,WSDL version 420,2013-06-13 23:25:00,
2013-06-14 09:30:00,61.8,49.3,29.62,WNW,296,5.2,12.8,64,-99.99,,,-99.99,WSDL version 420,2013-06-13 23:30:00,
2013-06-14 09:35:00,61.9,48.7,29.62,West,281,7.6,10.5,61,-99.99,,,-99.99,WSDL version 420,2013-06-13 23:35:00,
2013-06-14 09:40:00,62.0,49.0,29.59,WNW,296,5.0,10.5,63,-99.99,,,-99.99,WSDL version 420,2013-06-13 23:40:00,
2013-06-14 09:45:00,62.1,48.6,29.59,West,278,5.3,10.7,61,-99.99,,,-99.99,WSDL version 420,2013-06-13 23:45:00,
2013-06-14 09:50:00,62.5,48.9,29.59,West,280,6.2,10.7,61,-99.99,,,-99.99,WSDL version 420,2013-06-13 23:50:00,
2013-06-14 09:55:00,62.5,48.5,29.59,WNW,293,5.7,10.7,60,-99.99,,,-99.99,WSDL version 420,2013-06-13 23:55:00,
2013-06-14 10:00:00,62.6,48.5,29.59,West,281,6.3,10.7,60,-99.99,,,-99.99,WSDL version 420,2013-06-14 00:00:00,
2013-06-14 10:05:00,62.7,48.5,29.59,WSW,251,6.2,10.5,60,-99.99,,,-99.99,WSDL version 420,2013-06-14 00:05:00,
2013-06-14 10:10:00,62.6,48.1,29.59,West,270,7.1,10.1,59,-99.99,,,-99.99,WSDL version 420,2013-06-14 00:10:00,
2013-06-14 10:15:00,62.8,48.2,29.59,West,270,6.8,11.9,58,-99.99,,,-99.99,WSDL version 420,2013-06-14 00:15:00,
2013-06-14 10:20:00,63.0,47.9,29.59,NW,311,5.3,14.1,58,-99.99,,,-99.99,WSDL version 420,2013-06-14 00:20:00,
2013-06-14 10:25:00,63.1,47.9,29.59,WNW,300,7.5,14.1,58,-99.99,,,-99.99,WSDL version 420,2013-06-14 00:25:00,
2013-06-14 10:30:00,63.6,48.7,29.59,WNW,293,4.6,12.3,58,-99.99,,,-99.99,WSDL version 420,2013-06-14 00:30:00,
2013-06-14 10:35:00,63.8,48.0,29.59,West,278,6.7,17.0,57,-99.99,,,-99.99,WSDL version 420,2013-06-14 00:35:00,
2013-06-14 10:40:00,-999.0,-99.9,29.59,WNW,288,5.7,17.0,-999,-99.99,,,-99.99,WSDL version 420,2013-06-14 00:40:00,
2013-06-14 10:45:00,64.6,47.5,29.59,WNW,286,5.2,10.7,53,-99.99,,,-99.99,WSDL version 420,2013-06-14 00:45:00,
2013-06-14 10:50:00,64.5,46.8,29.59,WNW,289,5.8,10.7,53,-99.99,,,-99.99,WSDL version 420,2013-06-14 00:50:00,
2013-06-14 10:55:00,64.5,46.5,29.56,West,270,6.5,14.3,52,-99.99,,,-99.99,WSDL version 420,2013-06-14 00:55:00,
2013-06-14 11:00:00,64.9,47.2,29.56,West,267,6.3,16.6,52,-99.99,,,-99.99,WSDL version 420,2013-06-14 01:00:00,
2013-06-14 11:05:00,64.6,46.4,29.56,West,280,6.9,16.6,52,-99.99,,,-99.99,WSDL version 420,2013-06-14 01:05:00,
2013-06-14 11:10:00,64.9,46.8,29.56,West,280,5.0,13.0,53,-99.99,,,-99.99,WSDL version 420,2013-06-14 01:10:00,
2013-06-14 11:20:00,65.0,46.3,29.56,West,270,7.0,17.0,51,-99.99,,,-99.99,WSDL version 420,2013-06-14 01:20:00,
2013-06-14 11:25:00,65.3,46.7,29.56,WNW,296,7.0,13.2,51,-99.99,,,-99.99,WSDL version 420,2013-06-14 01:25:00,
2013-06-14 11:30:00,65.4,46.3,29.56,WNW,287,6.4,14.8,50,-99.99,,,-99.99,WSDL version 420,2013-06-14 01:30:00,
2013-06-14 11:35:00,65.2,45.8,29.56,WNW,293,5.9,14.8,50,-99.99,,,-99.99,WSDL version 420,2013-06-14 01:35:00,
2013-06-14 11:40:00,65.5,46.0,29.56,North,3,7.0,12.5,49,-99.99,,,-99.99,WSDL version 420,2013-06-14 01:40:00,
2013-06-14 11:45:00,65.9,46.4,29.56,West,266,7.2,13.0,49,-99.99,,,-99.99,WSDL version 420,2013-06-14 01:45:00,
2013-06-14 11:50:00,66.1,46.3,29.56,NW,325,8.0,13.0,48,-99.99,,,-99.99,WSDL version 420,2013-06-14 01:50:00,
2013-06-14 11:55:00,66.3,46.0,29.53,WNW,293,5.6,12.5,48,-99.99,,,-99.99,WSDL version 420,2013-06-14 01:55:00,
2013-06-14 12:00:00,66.7,46.3,29.53,West,280,6.6,13.0,48,-99.99,,,-99.99,WSDL version 420,2013-06-14 02:00:00,
2013-06-14 12:05:00,67.0,46.3,29.53,WNW,284,5.4,13.0,47,-99.99,,,-99.99,WSDL version 420,2013-06-14 02:05:00,
2013-06-14 12:10:00,67.1,46.0,29.56,West,260,6.4,10.7,46,-99.99,,,-99.99,WSDL version 420,2013-06-14 02:10:00,
2013-06-14 12:15:00,67.3,45.4,29.56,West,280,5.1,11.9,45,-99.99,,,-99.99,WSDL version 420,2013-06-14 02:15:00,
2013-06-14 12:20:00,67.4,45.9,29.56,NW,309,5.5,12.3,46,-99.99,,,-99.99,WSDL version 420,2013-06-14 02:20:00,
2013-06-14 12:25:00,67.6,45.3,29.56,WNW,285,8.2,15.9,44,-99.99,,,-99.99,WSDL version 420,2013-06-14 02:25:00,
2013-06-14 12:35:00,67.8,45.6,29.56,NW,315,4.9,12.1,45,-99.99,,,-99.99,WSDL version 420,2013-06-14 02:35:00,
2013-06-14 12:40:00,68.1,45.6,29.56,WNW,287,4.4,11.0,44,-99.99,,,-99.99,WSDL version 420,2013-06-14 02:40:00,
2013-06-14 12:45:00,68.8,45.9,29.56,WNW,289,5.8,18.6,43,-99.99,,,-99.99,WSDL version 420,2013-06-14 02:45:00,
2013-06-14 12:50:00,68.7,45.5,29.56,West,280,5.4,18.6,44,-99.99,,,-99.99,WSDL version 420,2013-06-14 02:50:00,
2013-06-14 12:55:00,69.2,46.0,29.56,WNW,289,5.4,9.8,43,-99.99,,,-99.99,WSDL version 420,2013-06-14 02:55:00,
2013-06-14 13:00:00,69.0,45.3,29.56,West,276,6.0,11.0,42,-99.99,,,-99.99,WSDL version 420,2013-06-14 03:00:00,
2013-06-14 13:05:00,68.3,44.7,29.56,WNW,284,6.0,11.0,43,-99.99,,,-99.99,WSDL version 420,2013-06-14 03:05:00,
2013-06-14 13:10:00,68.1,45.0,29.56,NW,312,5.8,10.1,43,-99.99,,,-99.99,WSDL version 420,2013-06-14 03:10:00,
2013-06-14 13:15:00,68.3,45.4,29.56,SW,214,4.6,9.8,44,-99.99,,,-99.99,WSDL version 420,2013-06-14 03:15:00,
2013-06-14 13:20:00,68.2,45.1,29.56,West,267,6.9,12.5,43,-99.99,,,-99.99,WSDL version 420,2013-06-14 03:20:00,
2013-06-14 13:25:00,68.6,45.6,29.53,WNW,299,3.8,12.5,44,-99.99,,,-99.99,WSDL version 420,2013-06-14 03:25:00,
2013-06-14 13:30:00,69.4,46.1,29.53,West,273,5.8,7.8,43,-99.99,,,-99.99,WSDL version 420,2013-06-14 03:30:00,
2013-06-14 13:35:00,69.1,45.5,29.53,WNW,283,6.3,9.6,43,-99.99,,,-99.99,WSDL version 420,2013-06-14 03:35:00,
2013-06-14 13:40:00,68.7,45.3,29.53,WNW,293,7.2,12.8,43,-99.99,,,-99.99,WSDL version 420,2013-06-14 03:40:00,
2013-06-14 13:45:00,68.8,45.4,29.53,West,274,5.5,13.2,43,-99.99,,,-99.99,WSDL version 420,2013-06-14 03:45:00,
2013-06-14 13:50:00,68.5,45.3,29.53,West,277,6.8,14.3,43,-99.99,,,-99.99,WSDL version 420,2013-06-14 03:50:00,
2013-06-14 13:55:00,68.3,45.0,29.53,West,275,6.8,19.0,43,-99.99,,,-99.99,WSDL version 420,2013-06-14 03:55:00,
2013-06-14 14:00:00,68.2,45.0,29.53,WNW,293,6.8,19.0,43,-99.99,,,-99.99,WSDL version 420,2013-06-14 04:00:00,
2013-06-14 14:05:00,68.0,45.0,29.53,West,281,6.9,13.6,44,-99.99,,,-99.99,WSDL version 420,2013-06-14 04:05:00,
2013-06-14 14:10:00,68.0,45.3,29.53,West,273,5.5,13.6,44,-99.99,,,-99.99,WSDL version 420,2013-06-14 04:10:00,
2013-06-14 14:15:00,68.2,45.5,29.53,WNW,299,5.7,11.2,44,-99.99,,,-99.99,WSDL version 420,2013-06-14 04:15:00,
2013-06-14 14:20:00,67.9,45.2,29.53,NW,323,8.1,12.3,44,-99.99,,,-99.99,WSDL version 420,2013-06-14 04:20:00,
2013-06-14 14:25:00,67.6,44.9,29.53,WNW,293,6.5,12.3,44,-99.99,,,-99.99,WSDL version 420,2013-06-14 04:25:00,
2013-06-14 14:30:00,67.5,45.4,29.53,West,280,6.1,10.7,45,-99.99,,,-99.99,WSDL version 420,2013-06-14 04:30:00,
2013-06-14 14:35:00,67.6,45.6,29.53,NW,304,4.6,10.5,45,-99.99,,,-99.99,WSDL version 420,2013-06-14 04:35:00,
2013-06-14 14:40:00,67.6,45.3,29.53,WNW,289,6.2,9.2,44,-99.99,,,-99.99,WSDL version 420,2013-06-14 04:40:00,
2013-06-14 14:45:00,67.1,44.7,29.53,WNW,295,4.7,10.3,44,-99.99,,,-99.99,WSDL version 420,2013-06-14 04:45:00,
2013-06-14 14:50:00,66.5,44.5,29.53,WNW,293,6.5,15.2,45,-99.99,,,-99.99,WSDL version 420,2013-06-14 04:50:00,
2013-06-14 14:55:00,65.5,44.1,29.53,WNW,289,4.6,15.2,47,-99.99,,,-99.99,WSDL version 420,2013-06-14 04:55:00,
2013-06-14 15:00:00,65.1,44.5,29.53,NW,308,3.2,13.9,48,-99.99,,,-99.99,WSDL version 420,2013-06-14 05:00:00,
2013-06-14 15:05:00,64.5,44.2,29.53,West,270,5.8,13.9,48,-99.99,,,-99.99,WSDL version 420,2013-06-14 05:05:00,
2013-06-14 15:10:00,64.4,44.8,29.56,NW,304,5.4,13.0,49,-99.99,,,-99.99,WSDL version 420,2013-06-14 05:10:00,
2013-06-14 15:15:00,64.5,45.0,29.56,WSW,244,6.0,11.0,49,-99.99,,,-99.99,WSDL version 420,2013-06-14 05:15:00,
2013-06-14 15:20:00,64.8,45.2,29.56,NW,312,4.4,12.5,49,-99.99,,,-99.99,WSDL version 420,2013-06-14 05:20:00,
2013-06-14 15:25:00,65.3,45.2,29.56,West,273,5.9,13.0,48,-99.99,,,-99.99,WSDL version 420,2013-06-14 05:25:00,
2013-06-14 15:30:00,65.8,45.5,29.56,WNW,285,4.4,13.0,48,-99.99,,,-99.99,WSDL version 420,2013-06-14 05:30:00,
2013-06-14 15:35:00,65.9,45.7,29.56,WNW,296,5.6,10.7,48,-99.99,,,-99.99,WSDL version 420,2013-06-14 05:35:00,
2013-06-14 15:45:00,65.6,45.4,29.56,West,262,4.7,9.8,48,-99.99,,,-99.99,WSDL version 420,2013-06-14 05:45:00,
2013-06-14 15:50:00,65.4,45.3,29.56,West,273,4.9,9.8,48,-99.99,,,-99.99,WSDL version 420,2013-06-14 05:50:00,
2013-06-14 15:55:00,65.4,45.4,29.56,WNW,302,3.8,10.3,49,-99.99,,,-99.99,WSDL version 420,2013-06-14 05:55:00,
2013-06-14 16:00:00,65.3,45.3,29.56,West,260,5.0,10.3,48,-99.99,,,-99.99,WSDL version 420,2013-06-14 06:00:00,
2013-06-14 16:05:00,65.1,44.9,29.56,WNW,293,5.3,12.1,48,-99.99,,,-99.99,WSDL version 420,2013-06-14 06:05:00,
2013-06-14 16:10:00,64.8,45.2,29.56,West,273,6.6,12.1,49,-99.99,,,-99.99,WSDL version 420,2013-06-14 06:10:00,
2013-06-14 16:15:00,64.5,44.9,29.56,WNW,293,4.3,8.7,49,-99.99,,,-99.99,WSDL version 420,2013-06-14 06:15:00,
2013-06-14 16:20:00,64.2,45.2,29.56,West,278,4.0,8.5,50,-99.99,,,-99.99,WSDL version 420,2013-06-14 06:20:00,
2013-06-14 16:30:00,63.1,44.9,29.56,West,281,6.0,10.5,52,-99.99,,,-99.99,WSDL version 420,2013-06-14 06:30:00,
2013-06-14 16:35:00,62.3,45.0,29.56,WNW,287,6.0,10.5,54,-99.99,,,-99.99,WSDL version 420,2013-06-14 06:35:00,
2013-06-14 16:40:00,61.7,45.2,29.56,West,270,4.9,10.3,56,-99.99,,,-99.99,WSDL version 420,2013-06-14 06:40:00,
2013-06-14 16:45:00,60.6,45.5,29.56,WNW,290,4.2,9.6,58,-99.99,,,-99.99,WSDL version 420,2013-06-14 06:45:00,
2013-06-14 16:50:00,60.0,46.0,29.56,WNW,300,5.3,8.1,60,-99.99,,,-99.99,WSDL version 420,2013-06-14 06:50:00,
2013-06-14 16:55:00,59.6,46.4,29.56,West,267,4.6,9.8,62,-99.99,,,-99.99,WSDL version 420,2013-06-14 06:55:00,
2013-06-14 17:00:00,59.2,46.7,29.56,WNW,299,3.5,10.7,63,-99.99,,,-99.99,WSDL version 420,2013-06-14 07:00:00,
2013-06-14 17:05:00,58.7,46.8,29.56,WNW,286,2.6,10.7,64,-99.99,,,-99.99,WSDL version 420,2013-06-14 07:05:00,
2013-06-14 17:10:00,58.3,46.9,29.56,West,273,4.8,9.8,67,-99.99,,,-99.99,WSDL version 420,2013-06-14 07:10:00,
2013-06-14 17:15:00,58.1,47.2,29.56,West,264,3.7,8.7,67,-99.99,,,-99.99,WSDL version 420,2013-06-14 07:15:00,
2013-06-14 17:20:00,57.9,47.4,29.56,West,260,3.8,7.8,68,-99.99,,,-99.99,WSDL version 420,2013-06-14 07:20:00,
2013-06-14 17:25:00,57.7,47.3,29.56,SW,231,3.8,8.1,69,-99.99,,,-99.99,WSDL version 420,2013-06-14 07:25:00,
2013-06-14 17:30:00,57.6,47.5,29.56,West,280,4.1,8.1,69,-99.99,,,-99.99,WSDL version 420,2013-06-14 07:30:00,
2013-06-14 17:35:00,57.6,47.3,29.56,WNW,298,3.5,7.6,68,-99.99,,,-99.99,WSDL version 420,2013-06-14 07:35:00,
2013-06-14 17:40:00,57.6,47.1,29.56,WNW,293,5.9,9.6,68,-99.99,,,-99.99,WSDL version 420,2013-06-14 07:40:00,
2013-06-14 17:45:00,57.6,46.7,29.56,West,272,3.7,9.6,67,-99.99,,,-99.99,WSDL version 420,2013-06-14 07:45:00,
2013-06-14 17:50:00,57.4,46.5,29.56,West,281,4.1,6.9,67,-99.99,,,-99.99,WSDL version 420,2013-06-14 07:50:00,
2013-06-14 17:55:00,57.2,46.4,29.56,WNW,289,4.2,7.2,67,-99.99,,,-99.99,WSDL version 420,2013-06-14 07:55:00,
2013-06-14 18:00:00,57.3,46.5,29.56,WNW,302,3.9,7.2,67,-99.99,,,-99.99,WSDL version 420,2013-06-14 08:00:00,
2013-06-14 18:05:00,57.2,46.1,29.56,WNW,286,2.7,13.2,66,-99.99,,,-99.99,WSDL version 420,2013-06-14 08:05:00,
2013-06-14 18:15:00,57.2,44.7,29.56,West,267,4.0,11.0,63,-99.99,,,-99.99,WSDL version 420,2013-06-14 08:15:00,
2013-06-14 18:20:00,57.2,43.9,29.56,West,273,3.6,10.3,61,-99.99,,,-99.99,WSDL version 420,2013-06-14 08:20:00,
2013-06-14 18:25:00,57.1,43.8,29.56,West,276,4.1,10.3,61,-99.99,,,-99.99,WSDL version 420,2013-06-14 08:25:00,
2013-06-14 18:30:00,57.0,43.7,29.56,West,281,3.6,7.4,61,-99.99,,,-99.99,WSDL version 420,2013-06-14 08:30:00,
2013-06-14 18:35:00,56.9,43.3,29.56,West,264,3.5,8.1,60,-99.99,,,-99.99,WSDL version 420,2013-06-14 08:35:00,
2013-06-14 18:40:00,57.0,43.4,29.59,West,259,4.3,8.1,60,-99.99,,,-99.99,WSDL version 420,2013-06-14 08:40:00,
2013-06-14 18:45:00,57.0,43.2,29.59,WNW,298,4.7,7.2,60,-99.99,,,-99.99,WSDL version 420,2013-06-14 08:45:00,
2013-06-14 18:50:00,57.0,43.3,29.59,West,273,5.4,8.1,60,-99.99,,,-99.99,WSDL version 420,2013-06-14 08:50:00,
2013-06-14 18:55:00,57.1,43.4,29.59,West,273,5.5,8.1,60,-99.99,,,-99.99,WSDL version 420,2013-06-14 08:55:00,
2013-06-14 19:00:00,-999.0,-99.9,29.59,West,266,5.3,8.7,-999,-99.99,,,-99.99,WSDL version 420,2013-06-14 09:00:00,
2013-06-14 19:05:00,57.2,43.8,29.59,West,273,3.6,8.7,61,-99.99,,,-99.99,WSDL version 420,2013-06-14 09:05:00,
2013-06-14 19:10:00,57.2,44.1,29.59,West,275,2.9,5.6,62,-99.99,,,-99.99,WSDL version 420,2013-06-14 09:10:00,
2013-06-14 19:15:00,57.2,44.5,29.59,West,264,3.7,6.3,63,-99.99,,,-99.99,WSDL version 420,2013-06-14 09:15:00,
2013-06-14 19:20:00,57.1,44.9,29.59,WNW,293,3.1,6.3,65,-99.99,,,-99.99,WSDL version 420,2013-06-14 09:20:00,
2013-06-14 19:25:00,56.9,45.4,29.59,WNW,302,3.7,7.8,66,-99.99,,,-99.99,WSDL version 420,2013-06-14 09:25:00,
2013-06-14 19:30:00,56.8,45.6,29.59,West,276,3.2,7.8,66,-99.99,,,-99.99,WSDL version 420,2013-06-14 09:30:00,
2013-06-14 19:35:00,56.7,45.8,29.59,West,270,3.8,7.8,67,-99.99,,,-99.99,WSDL version 420,2013-06-14 09:35:00,
2013-06-14 19:40:00,56.5,45.7,29.59,WNW,299,4.9,8.5,67,-99.99,,,-99.99,WSDL version 420,2013-06-14 09:40:00,
2013-06-14 19:45:00,56.4,45.6,29.59,WNW,287,3.4,8.5,67,-99.99,,,-99.99,WSDL version 420,2013-06-14 09:45:00,
2013-06-14 19:50:00,56.3,45.2,29.59,West,280,5.7,8.7,66,-99.99,,,-99.99,WSDL version 420,2013-06-14 09:50:00,
2013-06-14 19:55:00,56.2,45.0,29.59,West,278,4.7,8.7,66,-99.99,,,-99.99,WSDL version 420,2013-06-14 09:55:00,
2013-06-14 20:00:00,56.0,44.5,29.59,West,273,4.1,10.3,65,-99.99,,,-99.99,WSDL version 420,2013-06-14 10:00:00,
2013-06-14 20:05:00,55.9,44.4,29.59,West,259,4.7,10.3,65,-99.99,,,-99.99,WSDL version 420,2013-06-14 10:05:00,
2013-06-14 20:10:00,55.8,44.6,29.59,WNW,289,5.7,7.4,66,-99.99,,,-99.99,WSDL version 420,2013-06-14 10:10:00,
2013-06-14 20:15:00,55.8,44.5,29.59,West,280,4.4,7.4,66,-99.99,,,-99.99,WSDL version 420,2013-06-14 10:15:00,
2013-06-14 20:20:00,55.8,44.6,29.59,WNW,283,5.7,7.6,66,-99.99,,,-99.99,WSDL version 420,2013-06-14 10:20:00,
2013-06-14 20:25:00,55.8,44.6,29.62,WSW,257,4.3,10.1,66,-99.99,,,-99.99,WSDL version 420,2013-06-14 10:25:00,
2013-06-14 20:30:00,55.6,44.5,29.62,West,278,4.0,10.1,66,-99.99,,,-99.99,WSDL version 420,2013-06-14 10:30:00,
2013-06-14 20:35:00,55.6,44.4,29.62,West,259,3.7,8.5,66,-99.99,,,-99.99,WSDL version 420,2013-06-14 10:35:00,
2013-06-14 20:40:00,55.6,44.8,29.62,West,261,4.9,7.2,67,-99.99,,,-99.99,WSDL version 420,2013-06-14 10:40:00,
2013-06-14 20:45:00,55.6,44.8,29.62,West,281,4.2,7.2,67,-99.99,,,-99.99,WSDL version 420,2013-06-14 10:45:00,
2013-06-14 20:50:00,55.5,44.8,29.62,WNW,298,4.3,7.4,67,-99.99,,,-99.99,WSDL version 420,2013-06-14 10:50:00,
2013-06-14 20:55:00,55.4,44.9,29.62,WNW,284,3.6,7.4,68,-99.99,,,-99.99,WSDL version 420,2013-06-14 10:55:00,
2013-06-14 21:00:00,55.3,45.1,29.62,WNW,283,4.3,11.0,69,-99.99,,,-99.99,WSDL version 420,2013-06-14 11:00:00,
2013-06-14 21:05:00,55.2,45.2,29.62,West,278,3.7,11.0,69,-99.99,,,-99.99,WSDL version 420,2013-06-14 11:05:00,
2013-06-14 21:10:00,55.0,45.4,29.62,West,276,4.3,10.7,70,-99.99,,,-99.99,WSDL version 420,2013-06-14 11:10:00,
2013-06-14 21:15:00,55.0,45.6,29.62,NW,305,3.9,10.5,71,-99.99,,,-99.99,WSDL version 420,2013-06-14 11:15:00,
2013-06-14 21:20:00,54.9,45.6,29.62,West,281,3.4,10.7,71,-99.99,,,-99.99,WSDL version 420,2013-06-14 11:20:00,
2013-06-14 21:25:00,54.7,45.8,29.62,WNW,296,4.2,10.7,72,-99.99,,,-99.99,WSDL version 420,2013-06-14 11:25:00,
2013-06-14 21:30:00,54.7,45.8,29.62,West,270,4.1,6.5,72,-99.99,,,-99.99,WSDL version 420,2013-06-14 11:30:00,
2013-06-14 21:35:00,54.6,46.0,29.62,WNW,295,2.8,6.0,73,-99.99,,,-99.99,WSDL version 420,2013-06-14 11:35:00,
2013-06-14 21:40:00,54.5,46.0,29.62,WNW,293,4.6,8.7,73,-99.99,,,-99.99,WSDL version 420,2013-06-14 11:40:00,
2013-06-14 21:45:00,54.5,46.1,29.62,West,260,3.6,8.7,74,-99.99,,,-99.99,WSDL version 420,2013-06-14 11:45:00,
2013-06-14 21:50:00,54.5,46.4,29.62,West,263,4.5,7.6,74,-99.99,,,-99.99,WSDL version 420,2013-06-14 11:50:00,
2013-06-14 21:55:00,54.3,46.3,29.62,West,273,4.2,8.5,74,-99.99,,,-99.99,WSDL version 420,2013-06-14 11:55:00,
2013-06-14 22:00:00,54.3,46.6,29.62,WNW,293,4.6,13.2,75,-99.99,,,-99.99,WSDL version 420,2013-06-14 12:00:00,
2013-06-14 22:05:00,54.2,46.4,29.62,West,270,4.4,13.2,75,-99.99,,,-99.99,WSDL version 420,2013-06-14 12:05:00,
2013-06-14 22:10:00,54.1,46.7,29.62,West,278,3.9,10.3,76,-99.99,,,-99.99,WSDL version 420,2013-06-14 12:10:00,
2013-06-14 22:15:00,53.9,46.7,29.62,West,273,4.3,8.5,77,-99.99,,,-99.99,WSDL version 420,2013-06-14 12:15:00,
2013-06-14 22:20:00,53.7,46.7,29.62,West,276,2.7,7.8,77,-99.99,,,-99.99,WSDL version 420,2013-06-14 12:20:00,
2013-06-14 22:25:00,53.8,47.3,29.62,West,280,5.1,8.1,79,-99.99,,,-99.99,WSDL version 420,2013-06-14 12:25:00,
2013-06-14 22:30:00,53.6,47.3,29.62,WNW,300,4.6,8.1,79,-99.99,,,-99.99,WSDL version 420,2013-06-14 12:30:00,
2013-06-14 22:35:00,53.6,47.3,29.62,West,278,3.7,7.8,79,-99.99,,,-99.99,WSDL version 420,2013-06-14 12:35:00,
2013-06-14 22:40:00,53.6,47.6,29.62,WNW,284,3.6,7.8,80,-99.99,,,-99.99,WSDL version 420,2013-06-14 12:40:00,
2013-06-14 22:45:00,53.4,47.6,29.62,West,266,4.5,12.5,81,-99.99,,,-99.99,WSDL version 420,2013-06-14 12:45:00,
2013-06-14 22:50:00,53.4,47.9,29.62,West,278,3.5,12.5,82,-99.99,,,-99.99,WSDL version 420,2013-06-14 12:50:00,
2013-06-14 22:55:00,53.3,48.0,29.62,West,267,3.7,8.1,82,-99.99,,,-99.99,WSDL version 420,2013-06-14 12:55:00,
2013-06-14 23:00:00,53.2,48.0,29.62,West,259,3.8,6.7,82,-99.99,,,-99.99,WSDL version 420,2013-06-14 13:00:00,
2013-06-14 23:05:00,53.2,48.2,29.62,WNW,293,4.3,9.8,83,-99.99,,,-99.99,WSDL version 420,2013-06-14 13:05:00,
2013-06-14 23:10:00,53.3,48.6,29.62,WSW,250,6.2,9.8,84,-99.99,,,-99.99,WSDL version 420,2013-06-14 13:10:00,
2013-06-14 23:15:00,53.4,48.9,29.62,WNW,302,4.2,9.6,84,-99.99,,,-99.99,WSDL version 420,2013-06-14 13:15:00,
2013-06-14 23:20:00,53.4,48.9,29.62,West,270,4.8,9.4,84,-99.99,,,-99.99,WSDL version 420,2013-06-14 13:20:00,
2013-06-14 23:25:00,53.3,48.7,29.62,West,270,3.6,11.9,84,-99.99,,,-99.99,WSDL version 420,2013-06-14 13:25:00,
2013-06-14 23:30:00,53.4,48.9,29.62,WNW,295,3.8,11.9,84,-99.99,,,-99.99,WSDL version 420,2013-06-14 13:30:00,
2013-06-14 23:35:00,53.5,48.9,29.62,WNW,289,4.1,7.4,84,-99.99,,,-99.99,WSDL version 420,2013-06-14 13:35:00,
2013-06-14 23:40:00,53.6,49.0,29.62,WNW,290,4.0,7.4,84,-99.99,,,-99.99,WSDL version 420,2013-06-14 13:40:00,
2013-06-14 23:45:00,53.7,48.9,29.62,West,281,3.3,8.7,83,-99.99,,,-99.99,WSDL version 420,2013-06-14 13:45:00,
2013-06-14 23:50:00,53.8,48.9,29.62,West,273,4.3,8.7,83,-99.99,,,-99.99,WSDL version 420,2013-06-14 13:50:00,
2013-06-14 23:55:00,53.8,48.9,29.62,WNW,286,3.3,8.1,83,-99.99,,,-99.99,WSDL version 420,2013-06-14 13:55:00,